Location: Hopkins Observatory
(42.6965°N, 73.1843°W)
Time: 04:02:19
(UTC-05:00)

Amateur Radio Satellites - All Passes

Search period start: 25 February 2017 03:32
Search period end: 26 February 2017 03:32
Location: Hopkins Observatory, 42.6965°N, 73.1843°W

Satellite Date Start Highest point End Downlink Frequencies (MHz)
Time Altitude Azimuth
RS-15 25 Feb 03:41:01 03:52:10 43° 252° (WSW) 04:02:53 29.354- 29.394
AO-7 25 Feb 03:44:43 03:53:06 80° 108° (ESE) 04:01:23 .
KKS-1 25 Feb 03:47:56 03:52:17 58° 259° (WSW) 03:56:40 437.445
CUBESAT XI-V 25 Feb 04:11:47 04:16:24 58° 260° (W) 04:21:00 437.345
ITAMSAT 1 25 Feb 04:21:32 04:25:56 28° 295° (WNW) 04:30:18 435.822/435.867
STARS 25 Feb 04:23:14 04:27:30 53° 260° (W) 04:31:49 437.465
AO-85 25 Feb 04:37:17 04:41:46 63° 306° (NW) 04:45:59 145.980
LilacSat-2 25 Feb 04:55:37 04:56:40 11° 89° (E) 04:57:43 437.200
M-CUBED/EXP-1 PRIME 25 Feb 05:00:26 05:02:44 18° 260° (W) 05:05:02 437.505
CUTE-I 25 Feb 05:26:26 05:30:58 27° 95° (E) 05:35:27 437.470
AO-7 25 Feb 05:38:33 05:45:01 26° 307° (NW) 05:51:28 .
SO-50 25 Feb 05:45:16 05:49:05 26° 44° (NE) 05:52:51 436.795
KAITUO 1B 25 Feb 05:48:52 05:52:25 37° 98° (E) 05:55:54 145.475/437.950
XW-2F 25 Feb 05:52:55 05:56:38 50° 99° (E) 06:00:19 145.980 - 146.000
XW-2D 25 Feb 05:57:17 06:01:06 61° 101° (E) 06:04:51 145.860 - 145.880
BEESAT 3 25 Feb 05:59:50 06:03:40 59° 120° (ESE) 06:07:35 437.485
XW-2B 25 Feb 06:02:19 06:06:08 69° 101° (E) 06:09:55 145.730 - 145.750
STRAND 1 25 Feb 06:04:55 06:09:57 59° 72° (ENE) 06:15:01 437.568
DOVE 4 25 Feb 06:06:26 06:11:09 83° 105° (ESE) 06:16:08 437.250
XW-2A 25 Feb 06:10:49 06:11:57 11° 91° (E) 06:13:05 145.665 - 145.685
XW-2C 25 Feb 06:10:56 06:14:48 89° 102° (ESE) 06:18:36 145.795 - 145.815
AO-85 25 Feb 06:21:55 06:22:56 11° 324° (NW) 06:23:57 145.980
NUDT-PHONESAT 25 Feb 06:24:04 06:27:50 77° 286° (WNW) 06:31:34 437.300
LilacSat-2 25 Feb 06:27:31 06:31:18 54° 286° (WNW) 06:35:01 437.200
BEESAT 2 25 Feb 06:37:20 06:41:12 61° 120° (ESE) 06:45:11 435.950
HO-68 25 Feb 06:39:02 06:45:07 29° 95° (E) 06:51:09 435.675
CUTE 1.7 + AOD 2 25 Feb 06:48:37 06:52:07 25° 95° (E) 06:55:36 437.475
Tancredo 1 25 Feb 06:50:58 06:53:00 15° 132° (SE) 06:55:01 437.200
CUBEBUG 2 25 Feb 07:03:58 07:07:24 19° 91° (E) 07:10:48 437.445
CUTE-I 25 Feb 07:06:05 07:11:07 41° 291° (WNW) 07:16:07 437.470
PRISM 25 Feb 07:11:09 07:12:26 11° 61° (ENE) 07:13:44 437.425
KAITUO 1B 25 Feb 07:23:46 07:26:08 16° 294° (WNW) 07:28:29 145.475/437.950
SO-50 25 Feb 07:25:26 07:29:40 41° 243° (WSW) 07:33:52 436.795
FO-29 25 Feb 07:25:27 07:26:33 10° 45° (NE) 07:27:40 435.910
XW-2F 25 Feb 07:28:38 07:30:21 13° 296° (WNW) 07:32:03 145.980 - 146.000
XW-2D 25 Feb 07:33:45 07:34:46 11° 297° (WNW) 07:35:47 145.860 - 145.880
AAUSAT CUBESAT 2 25 Feb 07:36:28 07:40:00 27° 95° (E) 07:43:30 437.432
BEESAT 3 25 Feb 07:39:02 07:41:39 17° 319° (NW) 07:44:16 437.485
UWE-3 25 Feb 07:41:30 07:45:35 29° 95° (E) 07:49:35 435.000/436.395/437.385
XW-2A 25 Feb 07:41:39 07:44:57 41° 287° (WNW) 07:48:13 145.665 - 145.685
SEEDS 25 Feb 07:45:58 07:50:09 74° 102° (ESE) 07:54:18 437.485
STRAND 1 25 Feb 07:46:10 07:49:31 17° 269° (W) 07:52:52 437.568
DOVE 4 25 Feb 07:46:22 07:48:15 12° 298° (WNW) 07:50:12 437.250
ISS 25 Feb 07:59:21 08:02:37 68° 144° (SE) 08:05:54 437.550
ZACube-1 25 Feb 08:03:12 08:07:10 28° 95° (E) 08:11:03 437.345
O/OREOS (USA 219) 25 Feb 08:10:17 08:14:52 72° 67° (ENE) 08:19:26 437.305
BEESAT 2 25 Feb 08:16:46 08:19:23 17° 319° (NW) 08:22:01 435.950
CUTE 1.7 + AOD 2 25 Feb 08:24:18 08:27:55 28° 291° (WNW) 08:31:31 437.475
Tancredo 1 25 Feb 08:25:41 08:28:56 66° 329° (NNW) 08:32:11 437.200
HO-68 25 Feb 08:26:12 08:33:09 56° 293° (WNW) 08:40:04 435.675
CUBEBUG 2 25 Feb 08:39:39 08:44:14 47° 288° (WNW) 08:48:45 437.445
PRISM 25 Feb 08:43:07 08:47:10 68° 257° (WSW) 08:51:14 437.425
YUBILEINY 25 Feb 08:48:46 08:55:22 24° 80° (E) 09:01:56 435.215
UNISAT 6 25 Feb 08:49:11 08:53:33 53° 72° (ENE) 08:58:03 437.425
TIGRISAT 25 Feb 08:49:35 08:53:55 49° 72° (ENE) 08:58:23 435.000
AO-73 25 Feb 08:51:25 08:55:59 85° 100° (E) 09:00:28 145.935
Oscar 11 25 Feb 08:58:28 09:02:49 87° 104° (ESE) 09:07:08 .
FO-29 25 Feb 09:02:48 09:09:35 47° 66° (ENE) 09:16:54 435.910
DELFI C3 25 Feb 09:10:55 09:14:34 36° 98° (E) 09:18:12 145.870
AAUSAT CUBESAT 2 25 Feb 09:12:00 09:15:22 25° 292° (WNW) 09:18:43 437.432
UWE-3 25 Feb 09:17:53 09:21:58 30° 292° (WNW) 09:26:00 435.000/436.395/437.385
SEEDS 25 Feb 09:24:10 09:25:14 11° 299° (WNW) 09:26:17 437.485
ISS 25 Feb 09:36:31 09:39:20 25° 342° (NNW) 09:42:09 437.550
ZACube-1 25 Feb 09:39:26 09:43:23 29° 292° (WNW) 09:47:16 437.345
DUCHIFAT 1 25 Feb 09:42:16 09:44:40 15° 63° (ENE) 09:47:06 145.980
EO-79 25 Feb 09:51:52 09:55:09 22° 66° (ENE) 09:58:27 145.935-145.965
O/OREOS (USA 219) 25 Feb 09:52:03 09:53:37 12° 263° (W) 09:55:11 437.305
LO-87 25 Feb 09:58:04 10:00:10 15° 92° (E) 10:02:17 145.935 - 145.965
Tancredo 1 25 Feb 10:03:10 10:05:41 20° 348° (NNW) 10:08:10 437.200
AIST 2D 25 Feb 10:07:44 10:11:08 47° 74° (ENE) 10:14:36 435.315
NANOSAT C BR1 25 Feb 10:08:28 10:12:09 30° 69° (ENE) 10:15:52 145.865
POLYITAN 1 25 Feb 10:08:43 10:12:31 33° 69° (ENE) 10:16:22 437.675
QB50P2 25 Feb 10:11:32 10:15:27 38° 71° (ENE) 10:19:25 145.880/145.840
HO-68 25 Feb 10:17:08 10:19:20 12° 313° (NW) 10:21:32 435.675
UNISAT 6 25 Feb 10:27:52 10:30:36 16° 270° (W) 10:33:22 437.425
TIGRISAT 25 Feb 10:28:00 10:30:54 17° 269° (W) 10:33:51 435.000
AO-73 25 Feb 10:30:09 10:31:29 11° 300° (WNW) 10:32:50 145.935
BUGSAT 1 25 Feb 10:39:05 10:42:08 21° 66° (ENE) 10:45:13 437.445
YUBILEINY 25 Feb 10:42:26 10:51:14 74° 280° (W) 11:00:04 435.215
DELFI C3 25 Feb 10:46:27 10:49:06 18° 294° (WNW) 10:51:45 145.870
FO-29 25 Feb 10:48:06 10:54:39 39° 266° (W) 11:01:46 435.910
ESTCUBE 1 25 Feb 10:55:50 11:00:00 37° 98° (E) 11:04:08 437.505/2401.250
ISS 25 Feb 11:14:19 11:16:36 17° 2° (N) 11:18:53 437.550
DUCHIFAT 1 25 Feb 11:15:49 11:19:55 52° 260° (W) 11:24:04 145.980
VELOX 1 25 Feb 11:22:00 11:25:32 23° 95° (E) 11:29:05 145.980
EO-79 25 Feb 11:26:54 11:30:43 33° 263° (W) 11:34:35 145.935-145.965
AO-85 25 Feb 11:28:29 11:31:00 16° 41° (NE) 11:33:29 145.980
LO-87 25 Feb 11:30:28 11:33:45 34° 288° (WNW) 11:37:02 145.935 - 145.965
SPROUT 25 Feb 11:30:40 11:34:09 24° 94° (E) 11:37:37 437.525
Tancredo 1 25 Feb 11:40:28 11:42:48 18° 8° (N) 11:45:07 437.200
AIST 2D 25 Feb 11:43:51 11:44:40 11° 270° (W) 11:45:29 435.315
NANOSAT C BR1 25 Feb 11:44:27 11:47:52 24° 265° (W) 11:51:18 145.865
POLYITAN 1 25 Feb 11:45:04 11:48:22 22° 266° (W) 11:51:41 437.675
Oscar 19 25 Feb 11:47:56 11:52:38 37° 68° (ENE) 11:57:20 437.125/150
QB50P2 25 Feb 11:48:22 11:51:23 19° 267° (W) 11:54:26 145.880/145.840
50 SAT 25 Feb 11:59:13 12:02:29 37° 99° (E) 12:05:43 437.505
BUGSAT 1 25 Feb 12:13:36 12:17:16 33° 263° (W) 12:21:01 437.445
Gurwin Techsat 1B 25 Feb 12:32:06 12:37:15 53° 71° (ENE) 12:42:25 435.225
ESTCUBE 1 25 Feb 12:33:08 12:36:35 22° 294° (WNW) 12:40:02 437.505/2401.250
YUBILEINY 25 Feb 12:44:49 12:49:46 16° 303° (WNW) 12:54:45 435.215
DX 1 25 Feb 12:49:18 12:53:40 89° 104° (ESE) 12:58:01 434.975-435.025
ISS 25 Feb 12:50:49 12:53:48 31° 22° (NNE) 12:56:47 437.550
AO-7 25 Feb 12:53:51 13:00:33 28° 54° (NE) 13:07:15 .
VELOX 1 25 Feb 12:58:04 13:02:02 33° 291° (WNW) 13:06:01 145.980
UKube-1 25 Feb 13:01:26 13:05:46 87° 98° (E) 13:10:05 .
SPROUT 25 Feb 13:06:16 13:10:05 31° 291° (WNW) 13:13:53 437.525
AO-85 25 Feb 13:07:53 13:11:43 59° 240° (WSW) 13:15:38 145.980
Tancredo 1 25 Feb 13:16:32 13:19:40 45° 27° (NNE) 13:22:47 437.200
Oscar 19 25 Feb 13:27:38 13:32:00 28° 265° (W) 13:36:24 437.125/150
50 SAT 25 Feb 13:33:32 13:35:16 13° 295° (WNW) 13:37:00 437.505
ITAMSAT 1 25 Feb 14:00:15 14:05:24 65° 72° (ENE) 14:10:36 435.822/435.867
Gurwin Techsat 1B 25 Feb 14:13:39 14:17:30 20° 268° (W) 14:21:23 435.225
BEESAT 3 25 Feb 14:15:57 14:19:49 44° 52° (NE) 14:23:39 437.485
ISS 25 Feb 14:27:12 14:30:21 43° 220° (SW) 14:33:29 437.550
UKube-1 25 Feb 14:40:44 14:41:06 10° 301° (WNW) 14:41:30 .
ITUPSAT 1 25 Feb 14:41:05 14:45:52 65° 102° (ESE) 14:50:37 437.325
AO-7 25 Feb 14:44:13 14:52:34 75° 253° (WSW) 15:00:58 .
BEESAT 25 Feb 14:47:37 14:52:26 77° 104° (ESE) 14:57:12 436.000
Tancredo 1 25 Feb 14:53:09 14:55:47 23° 225° (SW) 14:58:24 437.200
BEESAT 2 25 Feb 14:54:19 14:58:15 46° 52° (NE) 15:02:09 435.950
MOZHAYETS 4 25 Feb 15:07:50 15:12:17 47° 99° (E) 15:16:41
KKS-1 25 Feb 15:38:23 15:42:04 24° 95° (E) 15:45:43 437.445
ITAMSAT 1 25 Feb 15:42:12 15:45:20 16° 269° (W) 15:48:29 435.822/435.867
RS-15 25 Feb 15:52:53 16:03:01 35° 104° (ESE) 16:13:26 29.354- 29.394
BEESAT 3 25 Feb 15:54:22 15:57:07 18° 249° (WSW) 15:59:49 437.485
PCSat 25 Feb 15:56:16 16:01:39 73° 117° (ESE) 16:07:04 145.827
CUBESAT XI-V 25 Feb 16:07:41 16:11:48 32° 96° (E) 16:15:54 437.345
STARS 25 Feb 16:12:02 16:15:43 25° 95° (E) 16:19:22 437.465
ITUPSAT 1 25 Feb 16:20:20 16:23:09 16° 299° (WNW) 16:25:58 437.325
BEESAT 25 Feb 16:27:17 16:29:33 13° 300° (WNW) 16:31:49 436.000
KAITUO 1B 25 Feb 16:30:06 16:32:58 21° 67° (ENE) 16:35:50 145.475/437.950
BEESAT 2 25 Feb 16:33:00 16:35:41 17° 249° (WSW) 16:38:20 435.950
XW-2F 25 Feb 16:34:39 16:37:55 27° 70° (ENE) 16:41:13 145.980 - 146.000
M-CUBED/EXP-1 PRIME 25 Feb 16:36:39 16:39:22 18° 100° (E) 16:42:12 437.505
XW-2D 25 Feb 16:39:12 16:42:39 32° 71° (ENE) 16:46:07 145.860 - 145.880
AO-7 25 Feb 16:42:33 16:46:39 14° 272° (W) 16:50:47 .
XW-2B 25 Feb 16:44:09 16:47:41 35° 71° (ENE) 16:51:14 145.730 - 145.750
MOZHAYETS 4 25 Feb 16:45:51 16:49:05 19° 296° (WNW) 16:52:18
CUTE-I 25 Feb 16:48:46 16:53:51 47° 69° (ENE) 16:58:58 437.470
XW-2C 25 Feb 16:52:37 16:56:18 45° 73° (ENE) 17:00:01 145.795 - 145.815
NO-84 25 Feb 16:54:55 16:58:08 84° 139° (SE) 17:01:41 435.350 FM
NUDT-PHONESAT 25 Feb 17:03:51 17:07:30 50° 74° (ENE) 17:11:11 437.300
HO-68 25 Feb 17:09:15 17:14:50 25° 57° (ENE) 17:20:25 435.675
LilacSat-2 25 Feb 17:09:29 17:13:20 78° 76° (ENE) 17:17:15 437.200
DOVE 4 25 Feb 17:13:02 17:17:10 88° 81° (E) 17:21:23 437.250
KKS-1 25 Feb 17:14:38 17:18:38 33° 291° (WNW) 17:22:39 437.445
PCSat 25 Feb 17:41:33 17:45:37 21° 317° (NW) 17:49:42 145.827
CUTE 1.7 + AOD 2 25 Feb 17:42:10 17:45:23 21° 66° (ENE) 17:48:35 437.475
CUBESAT XI-V 25 Feb 17:45:13 17:49:03 27° 293° (WNW) 17:52:52 437.345
STARS 25 Feb 17:48:08 17:52:03 32° 292° (WNW) 17:55:59 437.465
RS-15 25 Feb 18:02:29 18:14:29 74° 307° (NW) 18:26:57 29.354- 29.394
CUBEBUG 2 25 Feb 18:03:10 18:06:07 17° 63° (ENE) 18:09:07 437.445
KAITUO 1B 25 Feb 18:03:29 18:06:49 29° 264° (W) 18:10:10 145.475/437.950
XW-2F 25 Feb 18:09:02 18:12:03 22° 266° (W) 18:15:05 145.980 - 146.000
M-CUBED/EXP-1 PRIME 25 Feb 18:10:24 18:13:53 36° 293° (WNW) 18:17:35 437.505
XW-2A 25 Feb 18:13:17 18:16:39 65° 76° (ENE) 18:20:04 145.665 - 145.685
XW-2D 25 Feb 18:14:12 18:16:55 18° 267° (W) 18:19:39 145.860 - 145.880
STRAND 1 25 Feb 18:15:35 18:19:13 19° 92° (E) 18:22:48 437.568
XW-2B 25 Feb 18:19:29 18:22:00 17° 268° (W) 18:24:32 145.730 - 145.750
AAUSAT CUBESAT 2 25 Feb 18:27:33 18:30:41 21° 67° (ENE) 18:33:49 437.432
XW-2C 25 Feb 18:28:53 18:30:45 13° 269° (W) 18:32:38 145.795 - 145.815
CUTE-I 25 Feb 18:29:55 18:34:06 23° 267° (W) 18:38:20 437.470
NO-84 25 Feb 18:33:38 18:36:15 20° 340° (NNW) 18:39:04 435.350 FM
SEEDS 25 Feb 18:37:53 18:42:01 54° 74° (ENE) 18:46:09 437.485
UWE-3 25 Feb 18:39:09 18:42:50 25° 67° (ENE) 18:46:35 435.000/436.395/437.385
NUDT-PHONESAT 25 Feb 18:40:27 18:41:44 11° 270° (W) 18:43:01 437.300
HO-68 25 Feb 18:54:47 19:01:55 70° 256° (WSW) 19:09:07 435.675
YUBILEINY 25 Feb 18:58:26 19:01:23 12° 53° (NE) 19:04:18 435.215
ZACube-1 25 Feb 18:59:37 19:03:16 25° 67° (ENE) 19:06:59 437.345
CUTE 1.7 + AOD 2 25 Feb 19:17:01 19:20:58 36° 263° (W) 19:24:57 437.475
CUBEBUG 2 25 Feb 19:37:59 19:42:17 51° 261° (W) 19:46:46 437.445
AO-73 25 Feb 19:46:56 19:51:23 70° 74° (ENE) 19:55:55 145.935
Oscar 11 25 Feb 19:53:26 19:57:46 72° 75° (ENE) 20:02:08 .
STRAND 1 25 Feb 19:53:40 19:58:43 54° 289° (WNW) 20:03:42 437.568
DELFI C3 25 Feb 19:57:21 20:00:33 24° 68° (ENE) 20:03:44 145.870
AAUSAT CUBESAT 2 25 Feb 20:02:09 20:05:56 34° 263° (W) 20:09:44 437.432
NO-84 25 Feb 20:13:20 20:15:10 13° 2° (N) 20:17:03 435.350 FM
UWE-3 25 Feb 20:15:06 20:19:07 33° 264° (W) 20:23:17 435.000/436.395/437.385
SEEDS 25 Feb 20:15:56 20:18:01 13° 270° (W) 20:20:07 437.485
RS-15 25 Feb 20:19:02 20:29:34 32° 336° (NNW) 20:40:16 29.354- 29.394
PRISM 25 Feb 20:24:54 20:27:13 15° 92° (E) 20:29:31 437.425
ZACube-1 25 Feb 20:35:20 20:39:22 33° 264° (W) 20:43:31 437.345
UNISAT 6 25 Feb 20:42:28 20:43:53 11° 88° (E) 20:45:18 437.425
TIGRISAT 25 Feb 20:43:15 20:44:02 10° 88° (E) 20:44:48 435.000
HO-68 25 Feb 20:48:54 20:50:52 11° 274° (W) 20:52:50 435.675
YUBILEINY 25 Feb 20:51:47 21:00:25 59° 77° (ENE) 21:08:56 435.215
AO-73 25 Feb 21:26:32 21:28:06 12° 272° (W) 21:29:42 145.935
DELFI C3 25 Feb 21:31:52 21:35:15 26° 265° (W) 21:38:36 145.870
Oscar 11 25 Feb 21:33:31 21:34:23 10° 272° (W) 21:35:15 .
SO-50 25 Feb 21:39:40 21:44:12 51° 119° (ESE) 21:48:41 436.795
NO-84 25 Feb 21:50:54 21:54:01 22° 22° (NNE) 21:57:19 435.350 FM
ESTCUBE 1 25 Feb 21:55:52 22:00:01 38° 70° (ENE) 22:04:11 437.505/2401.250
FO-29 25 Feb 21:56:55 22:03:57 39° 94° (E) 22:10:22 435.910
PRISM 25 Feb 21:58:50 22:02:44 46° 288° (WNW) 22:06:38 437.425
LO-87 25 Feb 22:06:45 22:10:16 82° 256° (WSW) 22:13:51 145.935 - 145.965
UNISAT 6 25 Feb 22:16:25 22:21:08 77° 285° (WNW) 22:25:47 437.425
TIGRISAT 25 Feb 22:16:34 22:21:19 83° 283° (WNW) 22:25:57 435.000
VELOX 1 25 Feb 22:20:05 22:23:32 23° 66° (ENE) 22:27:01 145.980
O/OREOS (USA 219) 25 Feb 22:23:08 22:27:35 73° 110° (ESE) 22:32:05 437.305
SPROUT 25 Feb 22:25:04 22:28:13 20° 66° (ENE) 22:31:22 437.525
50 SAT 25 Feb 22:34:38 22:37:03 18° 67° (ENE) 22:39:28 437.505
RS-15 25 Feb 22:37:24 22:47:23 27° 11° (NNE) 22:57:15 29.354- 29.394
YUBILEINY 25 Feb 22:49:23 22:56:39 31° 277° (W) 23:03:54 435.215
DUCHIFAT 1 25 Feb 22:59:26 23:02:49 22° 94° (E) 23:06:11 145.980
PCSat 25 Feb 23:01:29 23:04:22 14° 36° (NE) 23:07:14 145.827
AIST 2D 25 Feb 23:05:13 23:08:44 53° 100° (E) 23:12:11 435.315
EO-79 25 Feb 23:10:22 23:14:20 35° 97° (E) 23:18:16 145.935-145.965
SO-50 25 Feb 23:21:09 23:24:56 24° 317° (NW) 23:28:40 436.795
NANOSAT C BR1 25 Feb 23:26:54 23:31:05 49° 99° (E) 23:35:13 145.865
POLYITAN 1 25 Feb 23:27:52 23:32:07 56° 100° (E) 23:36:19 437.675
NO-84 25 Feb 23:28:05 23:32:11 85° 38° (NE) 23:36:34 435.350 FM
QB50P2 25 Feb 23:30:50 23:35:07 65° 101° (ESE) 23:39:22 145.880/145.840
ESTCUBE 1 25 Feb 23:33:28 23:36:56 21° 266° (W) 23:40:24 437.505/2401.250
FO-29 25 Feb 23:41:48 23:49:00 45° 294° (WNW) 23:55:36 435.910
DX 1 25 Feb 23:45:09 23:49:28 84° 78° (ENE) 23:53:49 434.975-435.025
BUGSAT 1 25 Feb 23:54:09 23:57:57 31° 97° (E) 00:01:44 437.445
VELOX 1 25 Feb 23:55:50 23:59:48 34° 262° (W) 00:03:50 145.980
UKube-1 25 Feb 23:56:13 00:00:30 79° 75° (ENE) 00:04:49 .
TIGRISAT 25 Feb 23:56:36 23:57:10 10° 302° (WNW) 23:57:44 435.000
SPROUT 25 Feb 23:59:56 00:03:52 37° 262° (W) 00:07:51 437.525
Oscar 19 26 Feb 00:00:48 00:02:28 11° 88° (E) 00:04:08 437.125/150
O/OREOS (USA 219) 26 Feb 00:05:11 00:07:33 14° 310° (NW) 00:09:55 437.305
50 SAT 26 Feb 00:06:56 00:09:59 27° 263° (W) 00:13:01 437.505
ITUPSAT 1 26 Feb 00:15:05 00:16:02 11° 57° (ENE) 00:16:59 437.325
BEESAT 26 Feb 00:20:17 00:22:10 12° 59° (ENE) 00:24:03 436.000
DUCHIFAT 1 26 Feb 00:34:42 00:38:31 32° 291° (WNW) 00:42:19 145.980
AIST 2D 26 Feb 00:40:43 00:41:29 11° 296° (WNW) 00:42:15 435.315
PCSat 26 Feb 00:43:23 00:48:49 67° 57° (ENE) 00:54:13 145.827
EO-79 26 Feb 00:46:36 00:49:53 22° 294° (WNW) 00:53:09 145.935-145.965
Gurwin Techsat 1B 26 Feb 00:48:22 00:52:11 20° 92° (E) 00:55:59 435.225
RS-15 26 Feb 00:51:42 01:03:45 53° 43° (NE) 01:15:20 29.354- 29.394
NANOSAT C BR1 26 Feb 01:03:46 01:06:24 16° 296° (WNW) 01:09:01 145.865
POLYITAN 1 26 Feb 01:05:02 01:07:26 15° 297° (WNW) 01:09:50 437.675
NO-84 26 Feb 01:07:01 01:09:30 15° 235° (SW) 01:12:01 435.350 FM
QB50P2 26 Feb 01:08:25 01:10:22 13° 298° (WNW) 01:12:18 145.880/145.840
BUGSAT 1 26 Feb 01:29:44 01:33:09 24° 293° (WNW) 01:36:34 437.445
Oscar 19 26 Feb 01:37:17 01:42:26 85° 286° (WNW) 01:47:34 437.125/150
ITUPSAT 1 26 Feb 01:48:14 01:53:03 82° 74° (ENE) 01:57:54 437.325
BEESAT 26 Feb 01:54:26 01:59:14 85° 256° (WSW) 02:04:03 436.000
MOZHAYETS 4 26 Feb 02:10:03 02:14:31 49° 72° (ENE) 02:19:00
ITAMSAT 1 26 Feb 02:13:06 02:17:05 21° 93° (E) 02:21:01 435.822/435.867
Gurwin Techsat 1B 26 Feb 02:27:15 02:32:27 55° 289° (WNW) 02:37:37 435.225
PCSat 26 Feb 02:28:07 02:31:38 18° 255° (WSW) 02:35:09 145.827
KKS-1 26 Feb 02:37:12 02:40:49 25° 66° (ENE) 02:44:27 437.445
AO-7 26 Feb 02:45:22 02:52:51 36° 97° (E) 03:00:15 .
RS-15 26 Feb 03:04:41 03:16:27 56° 248° (WSW) 03:27:45 29.354- 29.394
STARS 26 Feb 03:09:24 03:12:58 25° 66° (ENE) 03:16:32 437.465
CUBESAT XI-V 26 Feb 03:11:30 03:15:42 34° 69° (ENE) 03:19:54 437.345
Oscar 19 26 Feb 03:19:07 03:20:57 12° 303° (WNW) 03:22:46 437.125/150
AO-85 26 Feb 03:22:39 03:26:48 35° 117° (ESE) 03:30:42 145.980
M-CUBED/EXP-1 PRIME 26 Feb 03:24:01 03:26:34 21° 63° (ENE) 03:29:07 437.505
